{"data":{"norad_id":58494,"intl_designator":"2023-186X","name":"STARLINK-30981","alt_names":[],"object_type":"PAYLOAD","status":"ACTIVE","operator":null,"country":"US","launch_date":"2023-12-03","launch_site_code":"AFETR","launch_vehicle":null,"mission":null,"orbit_class":"UNKNOWN","rcs_meters":null,"size_class":null,"mass_kg":null,"dimensions":null,"purposes":["comms"],"wikipedia_slug":null,"has_3d_model":false,"image_url":null,"decayed_at":null,"tle_current":{"epoch":"2026-09-19T09:24:02.464416Z","epoch_age_seconds":242570,"freshness":"STALE","line1":"1 58494U 23186X   26262.39169519  .00000348  00000+0  22172-4 0  9993","line2":"2 58494  43.0043  49.4397 0001066 273.8072  86.2658 15.27579715155515","mean_motion":15.27579715,"eccentricity":0.0001066,"inclination_deg":43.0043,"raan_deg":49.4397,"arg_perigee_deg":273.8072,"mean_anomaly_deg":86.2658,"bstar":2.2172e-5,"rev_number":15551,"period_min":94.266766300965,"perigee_km":482.31854690351,"apogee_km":483.78135196112,"semimajor_km":6861.1869494323,"source":"CELESTRAK","updated_at":"2026-09-21T09:00:33.905901Z"}}}